Regional Weather Roundup
Issued by NWS Jackson, KY

Home | Current Version | Previous Version | Graphics & Text | Print | Product List | Glossary On
Versions: 1 2 3 4 5 6 7 8 9 10 11 12 13 14 15 16 17 18 19 20 21 22 23 24 25 26 27 28 29 30 31 32 33 34 35 36 37 38 39 40 41 42 43 44 45 46 47 48 49 50
000
ASUS43 KJKL 280505
RWRJKL

EAST KENTUCKY HOURLY WEATHER ROUNDUP
NATIONAL WEATHER SERVICE JACKSON KY
100 AM EDT MON JUL 28 2014

NOTE: "FAIR" INDICATES FEW OR NO CLOUDS BELOW 12,000 FEET WITH
NO SIGNIFICANT WEATHER AND/OR OBSTRUCTIONS TO VISIBILITY.

* THESE REPORTS ARE NOT UNDER NWS QUALITY CONTROL AND MAY NOT
  REPORT WEATHER SUCH AS PRECIPITATION AND FOG.

KYZ079-080-083-085-087-088-110-112-115-119-120-280600
...EASTERN KENTUCKY...

CITY           SKY/WX    TMP DP  RH WIND       PRES   REMARKS
JACKSON        LGT RAIN  68  66  93 VRB3      29.87R
LONDON         CLOUDY    73  68  84 NW6       29.90R
SOMERSET*      MOCLDY    68  68 100 CALM      29.90R
MONTICELLO*    PTCLDY    72  69  90 CALM      29.91R
MIDDLESBORO*   CLOUDY    68  68 100 CALM      29.90R
HARLAN APT*    CLOUDY    68  66  94 MISG      29.91R
BLACK MTN*       N/A     63  63 100 S2          N/A
PIKEVILLE APT* CLOUDY    66  64  94 W7        29.86R
MOREHEAD APT*    N/A     70  64  83 VRB7      29.85R
$$

KYZ035-036-041-042-044-050-067-078-099-280600
...CENTRAL KENTUCKY...

CITY           SKY/WX    TMP DP  RH WIND       PRES   REMARKS
MT STERLING*   MOCLDY    70  64  83 NW5       29.86S
FLEMING/MASON* MOCLDY    67  66  97 W8        29.83R
DANVILLE*      CLEAR     70  63  78 CALM      29.89S
RICHMOND*      MOCLDY    72  64  78 W5        29.87S
LEXINGTON      PTCLDY    70  62  76 W7        29.87R
FRANKFORT      CLEAR     70  62  76 W6        29.85R
$$

KYZ091>093-OHZ055-061-077-WVZ005-015-034-035-042-280600
...SOUTHERN OHIO/WEST VIRGINIA...

CITY           SKY/WX    TMP DP  RH WIND       PRES   REMARKS
COVINGTON      PTCLDY    67  60  78 W6        29.82S
COLUMBUS       PTCLDY    67  62  84 W5        29.73S
DAYTON         PTCLDY    69  57  65 NW12      29.79S
WILMINGTON     CLEAR     68  59  73 W8        29.78S
HUNTINGTON     PTCLDY    68  67  96 SW6       29.77R
CHARLESTON     CLOUDY    69  68  96 SW10      29.77S
PINEVILLE*     LGT RAIN  69  69 100 MISG      29.89S
BECKLEY        LGT RAIN  67  63  87 W12       29.86R
BLUEFIELD      PTCLDY    68  63  84 W12       29.89S
$$

VAZ002-007-008-TNZ017-027-036-066-071-280600
...SOUTHWEST VIRGINIA/EAST TENNESSEE...

CITY           SKY/WX    TMP DP  RH WIND       PRES   REMARKS
WISE*          MOCLDY    66  66 100 W9        29.94R
JONESVILLE*      N/A     66  66 100 CALM      29.93R
ABINGDON*      CLOUDY    68  68  99 W12       29.92F
BRISTOL        CLOUDY    67  63  87 S5        29.91F
KNOXVILLE      TSTM      70  69  97 CALM      29.91R FOG
OAK RIDGE      LGT RAIN  71  69  93 CALM      29.92F
CROSSVILLE     LGT RAIN  69  66  90 W5        29.98R
NASHVILLE      MOCLDY    77  74  90 W7        29.91S
$$

...KEY TO REMARKS...
VSB - VISIBILITY IN MILES
WCI - WIND CHILL INDEX
HX  - HEAT INDEX

$$



USA.gov is the U.S. government's official web portal to all federal, state and local government web resources and services.